DateTimeUTC,F1_A11,F1_S11,BsB_S11,BsG_S11,BsR_S11,BbsB_S11,BbsG_S11,BbsR_S11,BaB_A11,BaG_A11,BaR_A11,Tu_S11,T_S11,Uu_S11,U_S11,P_S11,T1_A11
2021-05-26T09:00:00Z,00000200,20000000,,,,,,,0000.03,0000.09,0000.66,16.7,23.3,08.9,05.9,0673.3,30.8
2021-05-26T09:01:00Z,00000200,20000000,,,,,,,0000.27,-000.02,-000.08,16.7,23.3,08.9,05.9,0673.3,30.8
2021-05-26T09:02:00Z,00000200,20000000,,,,,,,-000.13,-000.05,0000.03,16.7,23.3,08.9,05.9,0673.3,30.8
2021-05-26T09:03:00Z,00000200,60000000,,,,,,,0000.61,0000.48,0000.35,16.7,23.3,08.9,05.9,0673.3,30.8
2021-05-26T09:04:00Z,00000200,40000000,0001.36,0000.82,0000.43,0000.28,0000.06,0000.01,-000.09,0000.17,0000.37,16.8,23.2,09.2,06.2,0674.3,30.8
2021-05-26T09:05:00Z,00000200,00000000,0000.81,0000.98,0000.29,0000.18,0000.22,0000.27,-000.08,0000.22,-000.13,16.9,23.1,09.4,06.4,0674.3,30.8
2021-05-26T09:06:00Z,00000200,00000000,0001.46,0000.92,0000.41,0000.40,0000.12,0000.29,0000.75,0000.49,0000.78,16.9,23.1,09.4,06.4,0674.4,30.8
2021-05-26T09:07:00Z,00000200,00000000,0001.78,0000.48,0000.39,0000.06,0000.07,0000.05,0000.07,-000.01,-000.06,16.9,23.1,09.5,06.5,0674.5,30.8
2021-05-26T09:08:00Z,00000200,00000000,0001.00,0000.72,0000.42,0000.08,0000.23,0000.06,-000.04,0000.31,0000.08,16.9,23.1,09.4,06.4,0674.4,30.8
2021-05-26T09:09:00Z,00000200,00000000,0001.65,0000.93,0000.54,0000.35,-000.02,0000.33,0000.07,-000.03,0000.30,16.9,23.1,09.4,06.4,0674.5,30.8
2021-05-26T09:10:00Z,00000200,00000000,0000.75,0000.77,0000.57,0000.01,0000.17,-000.13,0000.07,0000.01,0000.07,16.9,23.1,09.3,06.4,0674.4,30.8
2021-05-26T09:11:00Z,00000200,00000000,0001.48,0000.80,0000.49,0000.47,0000.16,0000.19,0000.11,-000.05,0000.38,16.9,23.1,09.3,06.3,0674.5,30.8
2021-05-26T09:12:00Z,00000200,00000000,0001.42,0000.78,0000.57,0000.81,0000.04,0000.12,-000.05,0000.08,-000.11,16.9,23.0,09.3,06.4,0674.5,30.8
2021-05-26T09:13:00Z,00000200,00000000,0001.28,0000.71,0000.47,0000.15,0000.04,0000.10,0000.25,0000.12,0000.31,16.9,23.0,09.3,06.4,0674.4,30.8
2021-05-26T09:14:00Z,00000200,00000000,0001.45,0000.89,0000.37,0000.19,0000.01,0000.08,0000.31,0000.85,-000.02,16.8,23.0,09.5,06.5,0674.4,30.8
2021-05-26T09:15:00Z,00000200,00000000,0000.96,0000.67,0000.29,0000.07,0000.17,-000.11,0000.19,-000.09,0000.48,16.9,23.0,09.6,06.5,0674.5,30.8
2021-05-26T09:16:00Z,00000200,00000000,0001.09,0000.94,0000.47,0000.36,0000.09,0000.11,0000.52,0000.52,0000.50,16.9,23.1,09.6,06.6,0674.5,30.8
2021-05-26T09:17:00Z,00000200,00000000,0001.42,0000.55,0000.62,0000.24,0000.28,0000.20,0000.07,0000.64,0000.26,17.0,23.1,09.6,06.6,0674.3,30.8
2021-05-26T09:18:00Z,00000200,00000000,0001.21,0000.68,0000.38,0000.56,-000.03,0000.09,0000.10,-000.33,-000.19,17.0,23.1,09.7,06.6,0674.6,30.8
2021-05-26T09:19:00Z,00000200,00000000,0000.96,0000.69,0000.38,0000.16,0000.25,-000.05,0000.72,0000.43,0000.60,17.0,23.1,09.7,06.7,0674.4,30.8
2021-05-26T09:20:00Z,00000200,00000000,0000.85,0000.67,0000.35,-000.06,0000.49,0000.09,0000.09,0000.13,0000.43,17.0,23.1,09.8,06.7,0674.4,30.8
2021-05-26T09:21:00Z,00000200,00000000,0001.94,0000.53,0000.59,0000.31,0000.39,0000.02,0000.61,0000.43,0000.30,17.0,23.1,09.8,06.7,0674.5,30.8
2021-05-26T09:22:00Z,00000200,00000000,0001.11,0000.86,0000.59,0000.64,0000.24,0000.21,-000.03,0000.05,0000.19,17.0,23.1,09.8,06.7,0674.6,30.8
2021-05-26T09:23:00Z,00000200,00000000,0001.04,0000.68,0000.25,0000.20,0000.06,-000.14,-000.28,0000.21,-000.26,17.0,23.1,09.9,06.8,0674.5,30.8
2021-05-26T09:24:00Z,00000200,00000000,0000.56,0000.77,0000.41,-000.61,0000.33,0000.03,-000.05,-000.21,0000.34,17.0,23.1,09.8,06.7,0674.5,30.8
2021-05-26T09:25:00Z,00000200,00000000,0000.98,0000.91,0000.45,0000.20,0000.01,0000.08,0000.23,0000.45,0000.33,17.0,23.1,09.8,06.7,0674.4,30.8
2021-05-26T09:26:00Z,00000200,00000000,0001.55,0000.71,0000.78,-000.46,0000.08,0000.26,0000.13,-000.08,0000.28,17.0,23.1,09.8,06.7,0674.4,30.8
2021-05-26T09:27:00Z,00000200,00000000,0001.76,0000.73,0000.79,0000.65,0000.56,0000.16,0000.39,0000.54,0000.17,17.0,23.1,09.8,06.7,0674.6,30.8
2021-05-26T09:28:00Z,00000200,00000000,0001.31,0000.71,0000.72,0000.39,0000.32,0000.36,0000.65,0000.37,0000.40,16.9,23.1,09.9,06.8,0674.6,30.8
2021-05-26T09:29:00Z,00000200,00000000,0001.51,0000.83,0000.19,-000.05,-000.21,0000.08,0000.24,0000.24,0000.47,16.9,23.1,09.9,06.8,0674.4,30.8
2021-05-26T09:30:00Z,00000200,00000000,0000.94,0000.84,0000.56,0000.79,-000.09,0000.11,-000.29,0000.28,0000.16,17.0,23.1,09.9,06.8,0674.4,30.8
2021-05-26T09:31:00Z,00000200,00000000,0001.19,0000.74,0000.63,0000.39,0000.29,-000.05,0000.31,0000.25,-000.14,17.0,23.1,09.8,06.8,0674.6,30.8
2021-05-26T09:32:00Z,00000200,00000000,0001.32,0000.84,0000.37,0000.34,0000.16,0000.11,-000.27,-000.20,0000.31,17.0,23.1,09.8,06.7,0674.6,30.8
2021-05-26T09:33:00Z,00000200,00000000,0001.16,0000.67,0000.46,0000.32,0000.11,0000.13,0000.40,0000.15,-000.07,17.0,23.1,09.9,06.8,0674.7,30.8
2021-05-26T09:34:00Z,00000200,00000000,0000.93,0000.92,0000.50,0000.43,0000.14,0000.23,-000.06,-000.22,0000.20,17.0,23.1,09.8,06.7,0674.5,30.8
2021-05-26T09:35:00Z,00000200,00000000,0001.57,0000.88,0000.53,0000.07,0000.11,0000.35,0000.42,0000.34,0000.21,17.0,23.1,09.9,06.8,0674.7,30.8
2021-05-26T09:36:00Z,00000200,00000000,0001.66,0000.65,0000.40,0000.43,0000.18,-000.01,0000.26,0000.44,0000.38,17.0,23.1,09.8,06.7,0674.7,30.8
2021-05-26T09:37:00Z,00000200,00000000,0000.82,0000.83,0000.12,0000.46,0000.13,0000.00,-000.01,0000.28,0000.06,17.0,23.1,09.9,06.8,0674.7,30.8
2021-05-26T09:38:00Z,00000200,00000000,0001.26,0000.99,0000.70,0000.22,0000.40,0000.16,0000.08,-000.07,0000.34,17.0,23.1,09.8,06.7,0674.5,30.8
2021-05-26T09:39:00Z,00000200,00000000,0001.65,0000.73,0000.68,0000.48,0000.03,0000.06,0000.28,0000.31,0000.28,17.0,23.1,09.8,06.7,0674.6,30.8
2021-05-26T09:40:00Z,00000200,00000000,0001.69,0000.90,0000.23,0000.29,0000.01,0000.19,0000.07,-000.20,0000.12,17.0,23.1,09.9,06.8,0674.5,30.8
2021-05-26T09:41:00Z,00000200,00000000,0000.81,0000.78,0000.47,-000.19,0000.17,0000.08,0000.40,0000.53,0000.44,17.0,23.1,09.9,06.8,0674.6,30.8
2021-05-26T09:42:00Z,00000200,00000000,0001.40,0000.77,0000.42,0000.23,0000.20,0000.07,0000.15,0000.13,0000.30,16.9,23.1,09.9,06.8,0674.7,30.8
2021-05-26T09:43:00Z,00000200,00000000,0000.67,0000.76,0000.31,0000.47,0000.03,-000.04,0000.06,0000.42,0000.54,16.9,23.1,10.1,06.9,0674.5,30.8
2021-05-26T09:44:00Z,00000200,00000000,0000.71,0000.97,0000.32,0000.81,0000.13,0000.10,0000.38,0000.01,-000.22,17.0,23.0,09.9,06.8,0674.5,30.8
2021-05-26T09:45:00Z,00000200,00000000,0001.49,0000.60,0000.26,-000.00,-000.06,0000.08,0000.29,0000.25,0000.17,17.0,23.1,10.0,06.8,0674.6,30.8
2021-05-26T09:46:00Z,00000200,00000000,0001.48,0000.83,0000.59,0000.05,0000.27,-000.00,-000.17,0000.23,0000.36,17.0,23.1,10.1,06.9,0674.8,30.8
2021-05-26T09:47:00Z,00000200,00000000,0001.08,0000.88,0000.33,0000.58,0000.03,-000.04,-000.05,0000.28,0000.31,17.0,23.1,10.1,06.9,0674.8,30.8
2021-05-26T09:48:00Z,00000200,00000000,0001.06,0000.63,0000.63,-000.11,0000.24,0000.23,0000.39,-000.00,0000.02,17.0,23.1,10.0,06.8,0674.7,30.8
2021-05-26T09:49:00Z,00000200,00000000,0001.07,0001.05,0000.59,0000.08,0000.31,0000.47,0000.26,0000.17,0000.11,17.0,23.1,10.0,06.9,0674.8,30.8
2021-05-26T09:50:00Z,00000200,00000000,0001.51,0000.87,0000.70,0000.42,0000.28,0000.05,0000.11,0000.49,0000.60,17.0,23.1,10.0,06.9,0674.8,30.8
2021-05-26T09:51:00Z,00000200,00000000,0001.03,0000.97,0000.45,0000.29,0000.19,0000.06,0000.51,-000.26,0000.01,17.1,23.1,10.1,06.9,0675.0,30.8
2021-05-26T09:52:00Z,00000200,00000000,0001.48,0001.04,0000.65,0000.73,-000.13,-000.11,-000.64,-000.02,0000.24,17.0,23.1,10.1,07.0,0674.8,30.8
2021-05-26T09:53:00Z,00000200,00000000,0001.47,0000.96,0000.77,0000.51,0000.09,0000.24,0000.35,0000.28,-000.09,17.0,23.1,10.0,06.9,0674.8,30.8
2021-05-26T09:54:00Z,00000200,00000000,0001.08,0000.91,0000.65,0000.34,0000.12,0000.10,0000.33,0000.42,0000.49,17.0,23.1,10.1,06.9,0675.0,30.8
2021-05-26T09:55:00Z,00000200,00000000,0001.00,0001.04,0000.47,0000.44,0000.20,0000.16,0000.29,0000.60,0000.46,17.0,23.1,10.1,07.0,0674.7,30.8
2021-05-26T09:56:00Z,00000200,00000000,0001.13,0000.92,0000.79,-000.07,0000.34,0000.13,0000.54,0000.21,0000.38,17.0,23.1,10.1,07.0,0674.9,30.8
2021-05-26T09:57:00Z,00000200,40000000,,,,,,,-000.16,-000.15,-000.11,17.0,23.0,10.2,07.0,0675.0,30.8
2021-05-26T09:58:00Z,00000200,60000000,,,,,,,-000.41,-000.17,-000.17,16.8,23.2,10.0,06.7,0674.0,30.8
2021-05-26T09:59:00Z,00000200,20000000,,,,,,,0000.66,0000.56,0000.43,16.8,23.3,10.0,06.7,0673.9,30.8
